Temp
23 24 24 24 25 25 25 26 26 26 25 25 25 24 24 23 23 23 23 22 22 21 21 21 21 21 21 21 21 21 21 21 20 20 19 19 19 19 19 19 19 19 19
25 24 24 24 24 24 25 25 25 25 25 25 25 24 24 23 23 22 22 22 22 22 22 21 21 21 21 21 20 21 21 21 20 19 19 19 19 19 19 19 19 19 19
24 24 24 24 24 24 24 24 24 25 25 24 24 24 24 23 23 22 22 21 21 21 21 21 21 21 21 21 20 20 21 20 20 20 19 19 19 19 19 19 19 19 19
24 23 24 24 24 24 24 24 24 24 24 24 24 24 24 23 23 22 22 21 21 21 21 21 21 21 21 21 21 21 21 20 20 20 19 19 19 19 19 19 19 19 19
23 22 23 23 24 24 24 24 23 24 24 23 23 23 23 23 23 23 22 22 22 22 21 21 21 21 21 21 20 20 20 20 20 20 19 20 19 19 19 19 19 19 19
20 20 20 21 21 22 22 23 23 23 23 23 23 23 23 23 23 22 22 22 22 22 22 21 21 21 21 21 21 20 20 20 20 20 20 20 19 20 19 19 20 20 19
19 19 20 20 21 21 20 20 21 22 23 23 23 22 22 22 22 22 22 22 21 21 21 21 21 21 21 21 21 21 20 20 20 20 20 20 19 19 19 20 20 20 19
19 19 19 19 19 20 21 21 21 20 20 22 23 23 23 22 22 22 22 22 21 21 21 21 20 20 20 21 21 21 20 20 20 20 20 20 20 19 20 20 19 19 19
19 20 20 19 19 19 20 20 20 20 20 20 20 21 21 22 22 22 22 21 21 21 21 21 21 21 20 20 20 20 20 20 19 20 20 20 20 20 20 19 19 19 19
18 19 19 19 19 20 19 19 19 19 20 20 20 20 20 20 20 21 21 21 21 20 20 20 20 20 20 20 20 20 20 20 20 20 20 20 21 21 20 19 20 20 19
17 17 18 18 18 19 19 18 19 20 19 18 19 19 19 20 20 20 20 20 20 20 20 20 19 19 20 19 19 19 19 19 20 20 20 20 21 21 21 20 20 20 20
14 15 15 16 16 17 17 17 17 18 18 17 18 18 18 18 19 19 19 19 19 19 19 19 19 19 19 19 19 19 19 20 20 20 21 21 20 21 21 20 20 20 20
12 14 14 15 15 15 15 15 16 16 16 17 17 17 17 17 17 18 18 19 19 19 20 18 18 18 18 19 19 20 19 20 20 20 20 20 20 19 20 20 20 20 20
13 13 13 13 13 13 14 14 14 14 15 16 15 16 16 16 17 17 17 17 17 17 17 17 17 17 17 18 18 19 19 19 19 19 20 20 19 19 18 19 19 19 20
11 12 12 12 12 12 12 13 13 13 13 13 14 14 15 15 15 15 16 16 16 16 16 17 17 17 17 17 17 17 18 18 18 18 18 19 19 19 20 19 20 19 18
12 11 11 12 11 12 11 11 12 12 12 13 13 13 13 13 14 14 14 14 14 14 14 15 15 16 17 16 17 17 17 17 17 18 17 17 18 18 19 19 21 20 19
11 11 11 11 11 11 11 11 11 11 11 11 11 12 12 12 12 13 12 13 13 12 13 14 14 14 15 16 16 16 16 16 17 17 17 17 17 17 19 19 20 21 19
11 11 11 11 11 11 10 10 10 10 10 10 10 10 10 10 10 11 10 10 11 11 11 12 12 12 12 13 14 16 16 17 17 17 16 17 17 17 17 18 18 19 18
10 11 11 11 11 10 10 9 9 9 9 9 9 8 8 9 9 9 9 9 9 9 10 9 10 9 9 10 11 14 16 17 17 17 16 16 17 16 17 17 19 18 18
10 10 10 10 10 10 9 9 8 8 7 7 7 6 6 7 7 7 7 7 7 8 7 7 7 8 8 8 10 12 14 16 17 17 16 16 16 16 16 16 17 17 17
8 9 9 9 9 10 9 8 8 6 6 6 6 5 6 5 5 5 5 5 5 4 4 4 5 5 6 7 8 10 13 14 14 14 14 14 14 14 15 15 15 15 15
8 8 7 7 8 9 9 8 7 6 5 4 4 4 4 4 4 4 3 3 3 3 3 3 3 3 5 5 6 7 8 11 13 13 13 13 12 12 12 13 13 13 14
7 7 7 7 7 7 7 7 6 5 4 3 3 3 2 2 2 2 2 2 2 2 2 3 3 3 3 5 5 6 7 7 8 11 12 11 11 10 11 11 11 12 13
7 7 6 6 6 6 6 6 6 4 3 2 2 2 2 1 1 1 1 1 1 2 2 2 2 2 3 4 5 5 6 6 8 7 10 10 10 9 9 8 10 10 11
6 6 6 5 5 4 5 4 4 2 2 1 1 1 1 1 1 1 1 1 1 1 1 1 1 2 2 2 3 3 4 5 7 7 8 7 8 8 8 8 9 9 9
5 5 5 5 4 3 3 3 3 2 1 1 1 0 0 0 0 0 0 1 1 0 0 0 1 0 0 1 1 1 2 3 4 5 6 6 6 7 6 8 8 8 7
Height
781 783 785 786 787 787 787 788 788 789 790 790 791 792 793 795 797 799 798 799 802 804 806 807 810 811 812 813 813 813 812 813 813 814 815 815 815 817 816 817 818 818 819
780 785 786 788 788 789 790 791 791 791 792 792 793 795 795 796 797 799 800 801 803 804 805 807 810 812 813 814 814 814 814 814 815 816 816 816 818 818 819 820 820 820 821
783 786 788 790 791 792 793 793 793 794 794 795 795 796 797 797 799 799 801 802 804 805 807 809 811 812 813 814 815 815 816 817 817 818 818 818 820 821 821 822 822 823 824
785 787 789 791 792 793 794 795 795 796 796 797 797 798 798 799 799 801 802 803 805 806 807 809 811 813 814 815 815 816 817 818 819 819 820 821 822 823 823 822 824 825 826
790 791 791 792 792 794 795 796 796 797 797 798 799 799 800 800 801 801 802 803 804 806 807 808 810 812 814 816 817 817 817 818 820 821 821 823 823 824 824 825 825 825 827
791 792 792 791 791 794 796 796 797 797 798 798 799 799 800 801 801 802 802 802 803 804 805 806 808 810 812 814 816 817 817 818 819 821 822 822 823 824 825 826 824 825 826
793 794 794 794 793 793 795 796 798 798 798 799 799 800 801 801 802 802 803 804 804 805 806 807 808 808 809 811 813 814 816 817 818 819 820 821 822 823 824 824 825 824 825
794 796 795 795 797 796 796 798 797 797 798 798 799 799 800 801 802 802 803 803 805 806 807 807 807 808 809 809 810 811 814 815 816 817 818 819 820 821 822 824 825 826 824
796 796 797 797 798 798 797 797 798 798 798 798 798 798 799 800 800 801 803 804 804 805 806 806 806 806 807 808 810 811 812 812 813 814 815 816 818 819 821 821 823 824 825
798 798 798 798 798 797 798 796 797 798 798 798 797 797 798 798 799 800 801 802 803 804 805 806 806 806 806 806 806 808 808 808 808 809 810 812 813 814 816 819 820 821 823
799 800 800 800 799 799 798 798 798 798 798 797 798 797 797 797 797 798 799 800 800 802 803 803 804 805 805 805 804 806 806 807 808 808 806 807 809 810 811 812 815 816 818
801 801 801 801 800 800 799 799 799 799 799 798 798 796 797 797 797 797 797 797 798 799 799 799 800 801 801 800 801 803 802 803 804 805 805 805 805 807 807 808 809 812 814
804 804 802 802 802 801 800 800 799 799 799 799 798 798 797 796 795 796 796 796 797 797 797 796 797 797 797 796 797 799 798 797 798 800 801 802 801 802 804 805 807 808 809
804 804 805 804 804 803 802 801 800 799 800 799 798 797 797 796 796 796 796 796 796 796 797 795 794 795 795 794 793 794 794 793 793 794 794 797 797 796 799 800 802 804 806
804 805 805 805 804 804 803 804 802 802 801 801 800 799 798 796 796 796 796 796 796 797 796 796 795 794 794 793 792 791 790 789 788 789 789 789 790 791 792 794 794 799 803
804 804 805 805 805 806 805 805 805 804 803 802 802 800 800 798 797 797 797 796 796 795 795 794 793 793 792 791 791 790 788 786 786 784 783 782 783 784 784 784 785 786 795
805 805 804 804 806 806 807 808 807 806 804 804 803 802 801 800 799 798 798 795 794 795 794 792 792 791 789 788 787 786 786 784 782 781 780 778 777 778 775 778 778 778 786
804 805 805 805 805 806 808 809 809 808 806 805 804 804 803 802 801 799 799 795 794 794 792 789 789 787 785 783 781 782 780 779 778 777 776 774 773 772 771 770 773 775 777
804 804 805 806 805 807 809 809 810 810 809 808 806 806 805 804 803 801 798 796 795 793 790 789 789 787 784 779 777 776 774 773 772 772 771 770 769 768 766 765 766 769 772
805 805 806 805 805 808 809 810 811 811 811 810 809 808 808 807 805 803 801 799 796 793 791 790 788 786 783 780 776 772 769 767 766 765 765 766 766 765 764 764 764 763 771
804 804 806 805 805 807 808 809 811 811 811 811 811 810 809 808 807 806 804 802 800 797 794 791 788 784 783 781 777 770 765 764 763 763 762 763 764 763 762 762 764 767 768
804 804 806 806 806 806 807 809 810 812 812 813 812 811 810 809 808 806 805 803 802 799 796 792 789 788 788 787 785 780 775 767 764 763 763 763 763 763 761 761 762 764 765
803 804 806 806 806 807 808 809 811 813 814 814 813 812 811 810 809 808 806 805 804 802 800 797 793 790 788 788 788 788 784 782 775 765 764 764 764 764 764 761 762 764 764
802 804 805 805 807 808 809 810 811 812 813 815 816 816 814 812 811 810 808 807 805 805 803 800 798 793 790 789 788 788 789 788 783 776 768 767 764 763 765 765 764 762 762
801 803 805 806 807 809 810 811 811 812 815 816 816 817 816 815 814 812 809 808 808 807 803 802 799 797 792 791 790 791 790 786 784 782 772 770 768 766 764 763 766 764 760
800 803 804 805 806 809 811 812 813 813 814 815 816 818 818 818 816 814 813 811 810 807 803 803 801 801 795 791 790 792 792 791 787 784 778 774 774 768 767 766 764 762 758
Wind_Speed
12 12 12 11 10 10 11 12 12 12 12 12 13 15 17 19 18 16 14 15 15 13 11 10 8 5 3 2 3 4 5 6 7 7 8 10 11 11 13 13 14 15 15
20 13 11 10 9 9 9 10 11 11 10 10 11 12 13 14 15 15 15 14 13 11 11 10 8 5 3 3 3 3 5 5 5 7 8 10 10 11 12 12 12 14 15
18 13 10 8 7 7 7 8 9 10 9 9 9 10 11 12 13 13 13 13 12 11 11 9 6 4 4 3 2 2 3 3 4 5 7 8 11 10 10 9 11 12 14
15 12 10 8 7 6 6 6 7 8 8 7 7 7 8 9 11 11 11 11 10 10 9 7 5 4 4 4 3 1 1 1 3 4 4 6 9 8 7 8 12 12 13
11 9 10 8 7 6 5 5 5 6 6 5 5 5 6 7 8 9 10 10 10 10 9 7 6 5 4 4 3 2 1 1 1 4 4 4 7 8 9 8 11 13 13
14 11 10 10 9 6 4 3 3 3 3 4 4 5 5 6 6 7 8 10 10 10 10 10 8 7 6 6 5 4 3 3 2 4 7 6 8 8 8 12 13 14 15
19 15 13 9 7 6 4 3 1 0 2 3 4 5 6 6 7 7 8 9 9 10 9 9 9 9 9 9 9 8 7 6 6 6 7 10 11 10 12 14 15 15 17
23 20 17 13 9 6 3 1 2 1 2 3 4 5 6 8 8 9 9 10 10 11 11 11 11 11 11 11 11 11 10 9 10 10 9 11 13 10 15 15 17 17 18
24 21 19 16 13 11 5 3 1 2 3 3 4 6 7 8 9 10 11 11 12 13 14 14 14 14 14 14 13 13 13 13 14 14 13 12 12 12 14 19 18 20 20
23 21 18 15 13 11 11 6 4 3 4 5 6 6 8 9 9 10 11 13 14 15 16 17 17 17 17 17 16 17 16 17 18 18 17 15 14 15 13 22 21 22 23
23 22 19 17 14 12 10 9 4 4 6 7 8 8 9 9 9 11 12 13 13 15 16 17 18 19 20 20 20 21 20 21 21 21 21 19 16 15 14 19 24 24 25
21 20 19 17 15 13 11 9 8 6 7 7 7 7 7 7 9 10 10 11 12 13 13 15 17 18 19 21 22 23 24 25 25 26 24 23 20 18 18 19 25 27 27
18 18 17 15 14 14 13 12 9 9 9 10 10 7 4 2 3 4 4 6 8 9 12 12 10 14 15 16 18 21 22 25 27 28 28 26 23 23 20 19 23 30 31
17 16 15 15 15 16 15 14 13 13 10 10 11 10 8 6 5 5 6 7 7 7 6 5 4 6 8 9 11 15 17 23 26 27 27 26 25 23 21 19 17 26 32
19 17 16 14 15 15 16 16 15 14 14 13 12 12 10 9 9 7 5 5 6 6 8 10 9 8 8 10 10 10 13 16 20 23 24 25 26 23 21 17 19 21 29
16 17 15 16 15 15 16 16 17 16 14 13 14 15 13 12 9 8 7 6 8 9 8 7 9 11 11 11 11 11 10 11 15 20 21 24 25 29 26 30 27 21 27
16 15 16 15 15 14 17 16 15 15 15 16 16 15 15 13 11 9 9 8 10 10 10 9 10 10 11 13 14 14 14 14 14 16 18 23 24 25 24 30 31 32 36
17 16 15 14 14 15 15 15 15 14 15 16 16 16 16 16 14 12 11 12 11 11 12 13 15 16 15 15 16 17 18 19 20 19 19 21 24 27 30 31 35 35 33
16 16 14 12 15 15 14 16 16 15 16 16 17 18 18 17 16 14 14 14 12 12 14 15 15 16 18 18 20 19 17 19 21 21 20 21 21 22 25 25 27 26 29
15 14 11 11 12 13 15 17 15 15 16 16 17 18 18 18 18 17 16 16 14 14 15 15 16 16 14 20 23 20 16 16 18 20 19 18 17 17 16 17 19 22 19
15 14 10 10 11 12 16 16 11 14 14 15 14 15 16 17 18 18 17 17 17 16 17 17 20 21 16 22 13 16 9 6 5 8 9 7 5 6 10 11 12 18 20
16 15 13 13 11 11 11 11 8 9 11 12 11 12 15 17 17 17 16 17 17 17 17 18 19 18 10 19 9 7 4 5 6 1 4 6 8 11 6 8 8 5 7
18 17 16 15 14 12 10 11 12 9 7 10 14 14 16 17 18 17 16 17 17 17 18 16 15 14 11 12 14 3 3 3 9 5 3 6 9 13 13 13 11 10 9
19 19 16 15 14 12 11 13 12 11 9 11 11 11 13 16 16 16 16 16 17 17 16 15 13 12 11 10 9 9 8 9 3 5 5 5 13 19 20 18 18 16 11
23 21 18 16 15 13 12 12 14 15 13 11 11 11 13 14 15 16 16 15 13 13 14 13 13 13 11 8 9 10 12 13 14 7 8 5 18 15 15 21 16 13 15
23 21 17 16 16 13 13 13 13 14 12 12 12 12 12 13 14 15 12 11 11 12 13 13 12 12 12 9 10 10 8 6 9 6 4 12 14 13 21 16 13 17 9
Wind_Direction
167 163 153 150 151 144 140 139 137 127 116 112 107 108 121 131 140 146 143 142 144 146 151 154 159 161 152 131 101 74 65 66 76 98 115 126 131 139 140 143 147 142 142
155 150 146 149 148 142 142 144 142 136 125 120 115 113 119 128 137 141 142 145 148 150 151 153 156 155 149 124 103 70 61 64 82 113 133 142 147 145 148 153 155 152 150
142 139 134 132 134 143 146 149 146 143 133 128 123 123 126 133 138 142 147 150 155 155 154 155 161 166 166 153 120 63 47 59 91 125 147 159 159 159 153 160 161 160 161
135 130 124 120 120 129 142 147 147 152 147 143 140 136 138 143 147 151 156 162 166 166 167 171 177 182 198 197 173 142 23 62 95 130 156 170 179 187 180 175 174 174 171
119 119 110 105 99 101 117 142 148 154 163 161 163 160 163 159 163 169 172 178 184 184 188 191 196 200 200 204 198 210 269 315 186 186 179 200 215 220 229 203 189 183 181
103 101 98 106 99 89 92 125 145 155 174 192 198 199 199 194 191 195 197 196 199 201 203 206 211 220 220 217 224 236 255 278 273 249 251 263 236 243 237 233 210 199 191
96 92 84 84 100 117 121 108 91 189 222 237 240 235 235 231 225 224 221 224 225 222 220 225 228 226 228 227 229 235 249 263 274 267 259 259 256 254 244 235 223 215 198
88 80 78 80 69 64 80 134 151 189 281 282 279 270 261 259 257 253 248 244 247 247 243 240 243 248 249 245 238 238 246 260 270 274 270 269 270 267 240 244 237 229 210
79 75 69 69 70 59 57 76 284 270 268 266 264 269 271 266 261 263 265 266 264 261 259 256 252 250 253 256 255 254 254 256 264 268 269 267 263 263 260 244 245 240 228
67 62 56 56 56 58 50 61 46 306 288 268 265 269 268 273 276 274 273 273 276 275 273 271 268 264 261 259 260 259 259 258 255 259 260 259 258 256 279 236 246 245 237
58 50 46 42 41 40 42 46 44 313 327 336 312 277 270 267 274 279 283 285 283 283 285 284 282 279 277 272 268 266 265 265 267 265 265 262 256 252 250 237 239 242 240
54 47 43 40 40 39 41 43 55 39 11 348 334 325 298 288 281 286 288 285 283 283 282 283 284 283 281 278 277 275 271 269 270 269 269 270 267 259 254 241 236 241 241
64 54 46 44 43 42 45 49 54 61 47 41 39 21 22 64 78 60 302 298 296 293 286 284 297 284 287 289 289 286 276 275 273 274 274 273 273 278 267 259 253 244 241
74 65 59 55 57 54 50 52 55 58 56 52 45 44 47 41 49 51 43 36 8 349 339 345 328 322 320 315 307 291 281 277 277 277 273 273 272 271 272 255 260 253 248
82 75 70 66 66 64 61 57 56 56 52 51 48 44 42 46 48 45 48 31 27 20 9 346 344 345 332 323 319 315 299 283 273 273 275 271 269 265 264 257 244 251 250
88 81 80 75 79 74 70 66 62 62 60 54 46 39 37 37 39 42 31 19 5 2 3 359 345 334 330 325 318 311 304 296 282 274 271 268 267 262 255 259 250 242 253
96 93 85 81 80 83 74 69 65 63 60 56 50 43 36 31 29 23 11 5 355 347 339 336 332 328 315 310 305 297 296 291 282 273 270 266 262 258 251 250 253 235 246
108 96 94 93 89 87 90 78 74 69 66 60 52 45 40 35 31 25 15 10 359 346 342 343 333 327 326 322 309 298 289 282 277 275 272 267 264 265 260 260 255 259 254
116 110 103 100 93 95 100 94 92 83 72 64 56 47 41 39 33 28 22 14 6 360 358 355 347 345 338 334 323 305 290 278 273 270 271 271 275 273 273 270 258 267 248
122 111 107 107 107 111 108 118 99 81 71 62 53 45 38 33 30 28 26 22 16 10 7 3 358 354 1 343 325 307 294 281 267 262 263 271 277 277 274 279 279 270 256
127 117 112 112 110 132 128 118 111 81 68 57 45 33 26 20 17 15 14 12 13 17 14 11 5 4 8 1 343 329 319 304 292 269 257 273 315 297 282 285 271 262 253
139 124 117 103 106 115 132 134 133 105 73 62 44 33 25 20 18 18 16 12 8 3 2 8 10 5 357 5 352 326 341 337 1 146 53 57 44 49 45 21 27 9 314
147 136 125 108 97 98 115 137 135 127 99 55 45 40 34 26 26 27 25 20 14 11 4 2 6 9 354 352 356 329 346 324 335 341 6 358 6 19 6 356 358 358 354
151 143 130 116 110 105 109 117 122 104 87 64 55 48 39 30 31 32 30 24 20 13 8 3 357 10 9 358 0 347 342 310 317 320 344 345 353 349 349 347 344 340 333
153 145 135 123 108 103 103 103 105 97 92 87 70 58 48 38 37 36 30 26 20 15 14 9 8 2 10 6 2 343 328 317 291 271 287 325 334 334 332 329 338 345 341
153 146 138 124 108 104 104 104 103 97 93 84 69 63 58 50 44 36 32 35 29 29 29 13 13 2 15 21 7 354 349 336 336 333 316 310 306 309 331 332 335 343 354